Location: Julian California
(33.0790°N, 116.6010°W)
Time: 00:23:42
(UTC-08:00)

CZ-2C R/B - Pass Details

Date: 12 July 2018
Orbit: 703 x 909 km, 98.2° (Epoch: 18 December)

Event Time Altitude Azimuth Distance (km) Brightness Sun altitude
Exits shadow 22:29:06 44° 77° (ENE) 1,156 3.7 -25.4°
Maximum altitude 22:29:14 44° 73° (ENE) 1,154 3.7 -25.4°
Drops below altitude 10° 22:34:18 10° 3° (N) 2,413 6.2 -26.0°
Sets 22:36:41 0° 357° (N) 3,316 7.2 -26.3°
